Temp
81 82 79 84 84 81 79 76 74 78 81 78 78 78 78 80 80 79 80 80 83 84 89 90 89 89 89 88 86 86 84 84 84 84 84 85 86 87 88 86 85 85 83 84
80 77 85 87 82 82 79 76 77 78 78 78 77 78 80 80 80 82 81 81 82 85 87 88 88 89 88 87 86 84 84 84 84 86 86 86 86 88 89 88 85 86 85 84
78 80 81 81 80 80 81 79 76 75 77 79 78 77 76 79 80 82 86 87 86 84 85 88 88 88 89 87 85 85 84 84 84 85 84 84 85 85 85 85 85 85 85 86
79 80 79 79 79 82 78 82 79 76 76 71 77 70 76 78 76 78 82 84 87 87 88 89 90 89 89 88 88 86 84 84 84 83 84 82 84 84 87 87 86 86 86 86
77 75 76 77 80 82 80 81 79 77 76 73 73 73 79 75 77 78 81 85 87 89 91 89 89 91 91 90 88 87 84 83 84 82 83 83 83 86 87 86 83 84 84 85
79 81 82 83 83 83 81 78 77 76 75 70 71 74 78 81 81 81 84 85 87 89 90 91 91 92 89 89 87 87 82 81 82 82 82 81 82 83 83 83 84 85 86 86
75 78 82 83 79 80 80 79 69 67 67 68 71 70 79 85 84 83 84 86 88 90 90 89 89 89 88 86 86 85 81 80 81 82 83 82 82 83 82 83 86 84 86 86
70 68 78 83 83 79 79 80 71 60 64 71 67 70 80 83 83 85 85 89 88 88 91 90 90 89 88 87 86 84 81 81 81 82 83 83 83 86 86 85 87 87 87 88
69 70 79 81 82 84 73 74 81 70 65 69 73 76 83 83 83 82 85 87 87 88 89 91 90 91 90 88 86 85 83 82 81 83 83 82 82 83 85 84 84 86 85 87
76 70 78 79 84 80 81 80 73 72 61 60 69 70 75 81 82 81 82 83 86 88 89 91 89 91 91 92 90 87 85 82 79 80 81 84 84 83 84 84 83 84 85 84
78 75 74 77 77 78 76 76 72 76 71 67 64 71 86 82 80 79 82 81 81 85 88 90 90 90 91 90 91 85 82 79 77 75 75 79 82 84 84 85 84 84 84 83
81 78 72 77 76 79 81 80 82 73 66 69 70 74 84 80 79 79 81 83 83 83 86 89 91 88 89 88 87 81 80 81 73 78 76 77 82 82 84 84 85 86 83 83
78 75 69 72 76 77 77 76 80 80 77 67 69 75 78 78 78 80 79 84 82 83 85 87 87 86 87 86 81 79 80 81 75 74 75 78 82 83 83 84 85 85 84 83
81 76 76 72 74 78 74 73 75 82 74 73 75 80 82 78 78 80 81 82 82 83 84 86 87 87 86 86 81 79 79 81 81 80 76 78 79 81 83 83 83 84 83 82
87 76 72 74 75 76 76 77 74 76 81 76 80 76 86 81 80 82 82 81 83 84 86 86 87 84 84 83 82 81 80 79 81 81 81 81 82 82 82 81 81 83 83 83
77 73 75 72 75 75 72 73 76 76 75 78 75 77 77 75 78 80 80 82 83 83 83 82 83 83 84 84 84 83 82 80 80 79 79 81 81 82 82 81 82 82 82 82
80 74 73 70 73 74 73 75 75 76 77 80 76 82 76 77 79 81 81 84 84 84 83 82 84 85 85 84 84 83 83 83 82 82 83 82 82 82 82 82 82 82 82 83
74 75 73 70 71 62 76 78 77 76 76 78 76 74 77 79 80 82 85 86 85 84 83 83 85 88 88 89 86 84 85 84 84 83 84 83 83 82 82 82 81 81 82 81
79 75 66 67 68 70 75 75 75 75 76 76 77 74 78 80 83 81 84 88 87 86 86 87 91 90 86 87 85 84 85 84 84 84 84 84 84 84 83 82 82 82 80 80
77 78 79 66 66 62 77 80 82 81 75 81 79 76 77 81 78 82 85 87 86 87 87 88 91 92 91 88 88 86 85 86 85 85 85 84 84 83 82 82 82 82 81 80
71 70 72 68 69 71 78 81 82 71 75 81 81 80 81 81 83 82 84 85 88 87 86 89 89 90 89 87 87 86 86 86 87 86 85 84 83 82 82 81 81 80 81 81
72 70 69 67 66 66 80 80 77 78 78 79 77 80 80 82 81 82 84 84 85 84 86 87 87 87 88 86 85 84 84 87 85 84 83 82 81 82 82 81 81 80 79 79
68 74 73 75 75 71 76 79 79 79 80 79 78 79 84 84 84 84 84 84 85 86 86 88 87 86 84 84 84 84 84 83 83 82 80 80 79 81 80 79 80 82 80 78
68 69 72 71 71 74 78 79 81 82 82 83 84 82 84 84 84 84 83 84 85 86 86 86 84 83 81 81 82 81 81 80 81 81 81 81 79 77 80 83 82 81 82 82
73 71 69 69 73 76 77 79 81 82 83 83 84 85 85 85 84 85 85 84 84 82 82 84 83 82 80 80 80 81 80 80 81 80 81 80 81 80 80 81 82 82 81 78
74 71 75 75 78 79 76 79 83 82 80 83 82 80 80 84 82 83 80 79 80 80 79 79 79 80 80 80 80 80 80 80 79 80 82 82 80 81 81 80 80 62 60 56
MSLP
1007.12 1006.68 1006.12 1006.22 1006.29 1006.79 1007.10 1007.39 1007.67 1007.80 1007.93 1008.21 1008.43 1008.73 1009.29 1009.89 1010.44 1010.72 1011.08 1011.50 1011.65 1011.68 1011.84 1012.48 1013.03 1013.69 1014.35 1014.90 1015.34 1015.75 1016.36 1016.71 1017.29 1017.66 1017.89 1017.93 1017.74 1017.88 1018.01 1018.18 1018.51 1018.60 1018.82 1018.96
1007.19 1006.41 1006.25 1006.22 1006.57 1006.66 1006.86 1007.07 1007.34 1007.79 1008.02 1008.11 1007.93 1007.79 1008.29 1009.03 1009.11 1009.25 1009.93 1010.63 1010.84 1011.23 1011.53 1011.96 1012.53 1013.11 1013.66 1014.10 1014.65 1015.33 1015.80 1016.35 1016.86 1017.21 1017.43 1017.62 1017.82 1017.83 1017.86 1017.97 1018.34 1018.50 1018.65 1018.76
1006.52 1006.51 1006.64 1006.56 1006.45 1006.44 1006.45 1006.57 1007.14 1007.59 1007.86 1007.93 1007.66 1006.90 1007.62 1008.27 1008.79 1009.13 1009.21 1009.31 1009.94 1010.49 1010.93 1011.24 1011.83 1012.35 1013.05 1013.50 1013.85 1014.35 1015.04 1015.76 1016.38 1016.76 1017.28 1017.61 1017.83 1017.97 1018.05 1018.11 1018.23 1018.32 1018.51 1018.54
1007.01 1006.87 1006.63 1006.47 1006.20 1006.25 1006.06 1006.41 1006.99 1007.31 1007.45 1007.55 1007.75 1006.77 1006.53 1007.20 1007.88 1008.21 1008.30 1008.56 1008.78 1009.38 1010.13 1010.59 1010.99 1011.58 1012.22 1012.51 1013.30 1013.91 1014.60 1015.12 1015.91 1016.53 1016.86 1017.09 1017.26 1017.37 1017.53 1017.75 1017.99 1018.01 1018.10 1018.23
1006.59 1006.69 1006.65 1006.33 1005.99 1006.47 1006.40 1006.64 1006.99 1007.31 1007.33 1007.45 1007.37 1006.87 1005.73 1006.52 1006.53 1006.93 1007.30 1007.60 1008.02 1008.45 1009.00 1009.63 1010.31 1010.59 1011.01 1012.04 1012.54 1013.25 1014.21 1014.79 1015.32 1016.00 1016.45 1016.91 1017.21 1017.39 1017.62 1017.75 1017.86 1017.82 1017.90 1018.04
1006.54 1006.78 1006.51 1005.98 1006.19 1006.45 1006.77 1006.89 1007.31 1007.32 1007.17 1006.78 1006.99 1006.59 1004.95 1005.21 1005.49 1005.75 1005.99 1006.51 1007.12 1007.72 1008.37 1008.83 1009.38 1010.12 1010.73 1011.57 1012.26 1012.87 1013.59 1014.33 1014.98 1015.67 1016.27 1016.71 1016.96 1017.43 1017.63 1017.66 1017.61 1017.63 1017.82 1017.92
1006.38 1006.21 1006.07 1006.01 1006.17 1006.79 1006.65 1006.45 1006.63 1006.81 1006.81 1006.42 1007.15 1006.63 1004.73 1004.71 1005.13 1005.20 1005.17 1005.38 1006.02 1006.74 1007.47 1008.05 1008.57 1009.30 1010.03 1010.90 1011.65 1012.40 1013.38 1013.95 1014.61 1015.30 1015.86 1016.37 1016.76 1017.28 1017.40 1017.37 1017.25 1017.33 1017.35 1017.43
1005.77 1005.85 1005.60 1005.43 1005.25 1005.55 1006.27 1006.07 1005.72 1005.93 1006.32 1006.20 1007.10 1005.58 1004.35 1004.71 1005.08 1005.01 1005.00 1004.90 1005.48 1006.11 1006.63 1007.23 1007.83 1008.62 1009.24 1010.00 1011.08 1012.01 1012.83 1013.67 1014.28 1014.80 1015.35 1015.97 1016.41 1016.67 1016.95 1017.05 1016.94 1016.90 1016.91 1016.93
1005.44 1005.31 1005.19 1005.19 1005.04 1005.19 1006.36 1006.21 1005.80 1005.99 1007.03 1006.33 1005.81 1005.03 1004.38 1004.51 1004.79 1005.08 1005.08 1004.92 1005.11 1005.63 1006.10 1006.47 1007.36 1007.98 1008.73 1009.53 1010.55 1011.45 1012.31 1013.16 1013.89 1014.23 1014.94 1015.59 1015.97 1016.23 1016.30 1016.63 1016.82 1016.79 1016.85 1016.77
1005.03 1005.04 1004.96 1005.09 1005.04 1005.50 1005.23 1005.60 1005.83 1005.78 1005.67 1005.54 1005.25 1004.68 1004.07 1004.13 1004.62 1005.29 1005.54 1005.46 1005.48 1005.47 1005.64 1005.97 1006.86 1007.43 1008.11 1008.92 1009.99 1011.28 1012.61 1013.68 1014.41 1014.87 1015.43 1015.49 1015.53 1015.76 1015.97 1016.19 1016.35 1016.52 1016.59 1016.72
1005.03 1004.83 1004.95 1005.09 1004.60 1004.41 1005.37 1005.10 1005.43 1005.31 1005.48 1004.84 1004.54 1003.82 1003.63 1003.97 1004.80 1005.46 1005.49 1005.82 1005.98 1005.72 1005.60 1005.85 1006.37 1007.34 1007.99 1009.01 1010.13 1011.40 1012.48 1013.39 1013.91 1013.43 1013.70 1014.79 1015.16 1015.21 1015.38 1015.52 1015.79 1016.00 1016.26 1016.47
1004.52 1004.41 1004.07 1004.08 1004.77 1004.67 1004.25 1003.97 1004.10 1004.34 1005.20 1005.34 1004.63 1003.53 1003.66 1004.47 1005.16 1005.66 1005.78 1005.93 1006.07 1006.05 1005.69 1005.71 1006.18 1007.17 1007.91 1009.11 1010.37 1011.45 1012.18 1012.94 1013.71 1012.71 1013.33 1013.56 1014.11 1014.42 1014.58 1014.85 1014.99 1015.37 1015.60 1015.85
1004.01 1004.08 1003.67 1003.89 1004.43 1004.46 1003.95 1004.17 1004.07 1004.07 1004.41 1004.36 1003.92 1003.35 1004.01 1004.80 1005.35 1005.78 1005.97 1005.87 1006.20 1005.95 1005.89 1006.12 1006.75 1007.34 1008.01 1009.19 1010.21 1011.18 1011.67 1012.38 1012.86 1012.40 1011.98 1012.88 1013.26 1013.64 1013.77 1014.15 1014.45 1014.72 1014.98 1015.14
1002.71 1003.50 1003.12 1003.08 1003.13 1003.31 1003.63 1003.85 1004.07 1003.55 1003.46 1003.49 1003.36 1003.01 1003.47 1004.48 1005.19 1005.71 1005.94 1006.15 1006.17 1006.01 1006.14 1006.49 1006.87 1007.31 1008.28 1009.50 1010.35 1011.20 1011.73 1012.00 1012.09 1012.13 1012.33 1012.85 1012.89 1013.25 1013.57 1014.07 1014.19 1014.32 1014.39 1014.53
1002.56 1002.75 1003.49 1003.47 1003.40 1003.39 1003.44 1003.39 1003.55 1003.39 1002.81 1002.86 1002.66 1003.25 1003.05 1004.19 1004.93 1005.59 1006.03 1006.33 1006.05 1006.10 1006.29 1006.67 1007.07 1007.60 1008.37 1009.20 1010.11 1010.91 1011.35 1011.67 1011.85 1012.15 1012.50 1012.29 1012.88 1013.26 1013.54 1013.18 1013.00 1013.24 1013.77 1013.85
1002.96 1002.89 1003.20 1003.32 1003.50 1003.58 1003.54 1003.36 1003.37 1003.60 1003.46 1003.22 1003.22 1003.36 1004.31 1005.08 1005.23 1005.69 1006.00 1006.11 1005.99 1006.40 1006.87 1007.35 1007.54 1007.73 1008.30 1008.90 1009.82 1010.52 1011.11 1011.57 1011.87 1012.05 1012.13 1012.31 1012.53 1012.68 1012.77 1012.65 1012.61 1012.75 1013.12 1013.10
1002.41 1002.66 1002.93 1003.11 1003.60 1003.49 1003.01 1002.95 1003.25 1003.37 1003.52 1003.21 1003.13 1003.23 1004.49 1004.86 1004.97 1005.34 1005.69 1005.97 1006.04 1006.74 1007.56 1007.85 1007.77 1007.73 1008.20 1008.80 1009.49 1010.31 1010.97 1011.44 1011.75 1011.77 1011.92 1012.01 1012.01 1012.10 1012.15 1012.32 1012.42 1012.42 1012.35 1012.37
1002.26 1002.42 1003.05 1003.38 1003.66 1003.41 1003.01 1003.37 1003.37 1003.29 1003.41 1003.66 1003.80 1004.26 1004.48 1004.74 1005.12 1005.56 1005.69 1005.66 1006.22 1006.97 1007.69 1007.93 1008.06 1008.01 1008.01 1008.71 1009.32 1009.90 1010.33 1010.75 1011.10 1011.24 1011.25 1011.45 1011.59 1011.52 1011.48 1011.48 1011.44 1011.59 1011.81 1011.93
1002.42 1002.52 1003.24 1003.57 1003.42 1003.55 1003.06 1003.30 1003.31 1003.04 1003.21 1003.60 1003.85 1004.54 1004.97 1005.21 1005.23 1005.74 1005.90 1006.00 1006.40 1007.10 1007.67 1008.00 1007.85 1007.85 1008.42 1008.99 1009.47 1009.78 1010.23 1010.76 1010.90 1010.95 1011.08 1011.16 1011.23 1011.23 1011.28 1011.31 1011.32 1011.32 1011.41 1011.49
1002.72 1002.53 1002.23 1003.67 1003.19 1002.92 1002.49 1002.94 1003.28 1003.29 1003.01 1003.25 1003.74 1004.45 1004.83 1005.05 1004.89 1005.23 1005.81 1006.21 1006.73 1007.27 1007.73 1007.87 1007.84 1007.90 1008.48 1009.13 1009.57 1009.81 1009.85 1010.27 1010.59 1011.01 1011.27 1011.32 1011.39 1011.38 1011.36 1011.31 1011.16 1011.09 1011.17 1011.13
1003.02 1003.02 1002.85 1003.39 1003.21 1002.96 1002.82 1003.20 1003.59 1003.58 1003.64 1003.29 1003.78 1004.06 1004.52 1004.72 1005.11 1005.40 1005.94 1006.43 1006.83 1007.21 1007.73 1007.91 1007.93 1007.97 1008.66 1009.19 1009.61 1009.90 1009.92 1010.05 1010.44 1010.79 1011.11 1011.28 1011.32 1011.29 1011.19 1011.09 1011.01 1010.95 1010.79 1010.69
1002.77 1003.14 1003.53 1003.94 1003.61 1003.41 1003.15 1003.56 1003.53 1003.48 1003.50 1003.59 1004.05 1004.54 1004.81 1004.99 1005.42 1005.67 1005.96 1006.35 1006.82 1007.37 1007.70 1008.03 1008.13 1008.19 1008.67 1009.16 1009.52 1009.66 1009.82 1010.17 1010.36 1010.65 1010.99 1011.23 1011.30 1011.18 1011.05 1010.87 1010.70 1010.71 1010.61 1010.45
1003.89 1003.35 1003.22 1003.51 1003.62 1003.81 1003.75 1003.54 1003.65 1003.71 1003.47 1003.63 1003.95 1004.49 1004.58 1004.84 1005.21 1005.66 1006.02 1006.44 1006.76 1007.11 1007.57 1008.03 1008.33 1008.76 1009.57 1009.89 1009.91 1009.99 1010.33 1010.39 1010.63 1010.85 1011.01 1011.18 1011.25 1011.12 1010.97 1010.77 1010.49 1010.29 1010.29 1010.25
1003.96 1004.00 1003.63 1003.74 1004.09 1003.99 1003.93 1003.95 1003.88 1003.92 1003.94 1004.07 1004.18 1004.54 1004.81 1004.91 1005.47 1005.74 1006.29 1006.73 1006.97 1007.37 1007.73 1008.24 1008.80 1009.27 1009.77 1010.22 1010.11 1010.39 1010.67 1010.62 1010.85 1010.94 1010.92 1010.99 1011.02 1010.87 1010.65 1010.36 1010.17 1009.97 1009.65 1009.49
1003.49 1003.95 1003.87 1004.11 1004.21 1004.19 1004.40 1004.31 1004.21 1004.36 1004.49 1004.43 1004.67 1005.04 1005.28 1005.46 1005.79 1006.06 1006.55 1006.78 1006.99 1007.79 1008.51 1008.69 1008.99 1009.41 1009.71 1010.05 1010.15 1010.49 1010.91 1010.79 1010.71 1010.78 1010.77 1010.78 1010.70 1010.59 1010.23 1009.87 1009.57 1009.37 1009.22 1009.25
1002.84 1002.90 1002.92 1002.69 1003.09 1003.51 1004.52 1004.71 1004.84 1004.60 1004.80 1005.14 1005.33 1005.88 1006.21 1006.34 1006.57 1006.87 1007.38 1007.69 1007.85 1008.29 1008.81 1008.95 1009.35 1009.59 1009.95 1010.06 1010.31 1010.61 1010.81 1010.75 1010.72 1010.62 1010.42 1010.42 1010.49 1010.10 1009.76 1009.35 1008.95 1008.84 1009.00 1009.16
Wind_Speed
2 6 12 12 11 3 4 2 1 4 1 4 5 5 12 16 16 15 17 17 17 18 17 15 15 15 14 14 13 14 12 11 8 7 6 6 6 4 3 4 4 5 4 4
5 12 11 5 9 6 3 2 3 1 1 5 2 8 13 17 21 20 20 18 19 18 16 15 14 15 16 16 15 14 14 13 11 9 6 3 3 3 1 3 4 4 4 4
10 3 6 9 7 8 6 7 2 2 1 1 7 5 5 13 15 16 18 18 19 19 18 17 17 17 16 17 17 16 15 14 13 12 7 4 4 2 3 4 3 5 7 6
5 1 9 8 12 10 12 1 3 2 2 4 3 5 3 6 13 20 20 20 19 19 18 17 17 18 18 19 16 16 14 14 13 13 10 10 8 7 5 4 3 5 7 6
5 9 7 10 10 9 5 6 5 3 2 3 3 5 1 0 6 15 19 21 21 20 20 18 18 19 20 16 16 16 14 14 12 13 11 10 10 7 5 4 4 5 4 5
2 2 6 7 7 10 12 6 6 4 1 4 1 4 5 2 2 2 8 18 19 19 19 19 18 16 15 14 14 14 15 14 14 13 13 13 11 9 6 6 5 5 4 4
4 5 2 3 9 4 5 6 3 3 4 3 2 5 9 7 7 9 6 14 18 18 19 19 19 18 16 17 17 15 14 14 15 15 14 14 12 11 10 8 7 6 5 6
9 9 9 7 6 9 12 11 5 6 5 3 2 6 4 1 3 4 6 5 13 16 16 18 20 18 18 17 17 16 16 14 15 15 14 11 12 8 8 8 6 6 5 5
7 6 2 4 4 5 7 7 0 6 2 3 1 6 9 0 1 3 2 6 10 14 16 16 15 17 17 16 17 18 16 14 14 15 12 12 11 12 10 9 8 6 6 5
5 6 2 5 4 7 5 11 6 0 4 6 5 6 7 8 3 2 1 0 3 7 12 14 13 15 15 16 14 12 9 7 5 4 6 9 11 11 11 9 10 9 8 7
7 3 6 4 9 11 6 4 5 4 3 6 9 8 7 8 2 3 3 3 2 4 10 11 12 11 12 11 11 11 12 13 8 10 8 10 12 12 11 11 11 11 9 9
7 1 4 5 3 1 3 5 8 7 6 1 4 8 1 3 3 3 3 2 3 2 4 12 11 10 11 10 11 13 15 16 9 9 7 12 15 13 12 13 13 12 12 11
10 5 4 5 3 1 4 4 4 4 3 8 8 7 3 2 5 4 3 3 4 4 6 6 7 8 8 10 11 12 14 16 14 11 6 10 13 13 14 14 13 13 13 13
15 5 7 4 3 4 5 6 8 11 6 7 9 13 8 7 8 6 2 2 3 5 7 6 6 7 6 7 10 10 11 13 14 11 7 8 10 11 11 10 11 13 13 13
9 11 5 3 1 2 3 9 14 13 10 10 12 12 8 8 10 7 5 3 6 8 7 7 6 7 6 8 10 10 11 12 12 11 11 12 9 10 10 12 12 12 12 13
5 4 5 3 6 2 4 3 8 10 5 7 3 8 3 6 9 8 8 8 11 11 11 10 11 13 11 10 9 8 10 10 11 11 12 11 11 10 10 12 12 11 13 13
11 8 5 4 5 4 4 2 5 4 5 5 9 3 11 11 12 11 10 9 12 11 9 10 13 15 14 12 11 11 9 8 8 8 6 6 7 9 9 10 10 11 12 11
8 9 1 4 5 5 4 1 7 8 5 10 5 3 12 10 10 9 7 10 11 11 10 9 10 13 14 13 12 10 9 7 6 5 4 3 4 4 5 6 7 8 9 10
4 6 6 5 8 2 3 4 4 6 4 8 5 5 10 11 9 4 6 7 9 10 9 9 11 13 12 11 11 12 11 8 6 4 1 2 3 4 4 4 5 6 7 8
7 5 3 4 5 7 2 4 3 2 3 10 10 14 17 14 9 7 10 10 8 9 9 11 11 13 12 10 9 9 10 8 5 3 2 1 1 3 4 5 5 4 5 6
4 4 5 5 2 2 3 4 4 3 2 6 10 17 16 10 3 7 10 10 9 10 11 10 11 12 11 9 9 9 8 9 7 4 1 3 4 4 4 5 4 5 6 6
5 6 4 4 2 4 6 7 4 3 1 4 5 11 12 11 10 8 11 11 10 9 10 11 10 10 10 10 9 8 8 6 6 5 2 3 5 5 5 6 5 5 5 6
4 2 4 4 1 2 2 1 1 3 1 2 6 11 10 7 6 6 8 10 11 11 9 10 9 5 2 4 4 5 3 4 4 3 0 3 4 5 5 6 8 6 5 5
2 3 3 5 2 2 3 3 2 2 5 4 8 12 9 2 3 6 4 8 9 8 9 8 6 5 4 4 4 2 3 4 1 2 3 3 4 6 5 5 6 7 7 7
2 9 7 4 5 9 7 5 7 9 8 10 10 8 6 4 6 4 3 4 6 6 4 5 5 4 5 5 5 3 2 1 0 3 4 5 5 7 8 7 8 8 8 7
6 7 6 5 12 6 7 7 8 14 13 13 14 14 11 6 7 6 6 5 4 5 4 4 5 5 4 4 4 2 0 1 3 5 5 6 6 7 8 8 9 9 13 7
Wind_Direction
80 199 190 183 209 124 129 160 256 278 298 217 248 228 201 192 193 191 193 196 203 204 211 217 213 212 208 208 204 206 203 208 196 198 206 214 213 207 211 200 194 217 198 214
172 215 202 195 159 174 184 240 255 234 99 226 255 256 205 198 208 201 192 197 206 213 213 217 218 211 211 209 209 206 209 206 204 205 206 200 210 235 226 181 169 200 205 204
212 187 175 201 176 195 224 249 167 1 109 211 305 281 166 206 217 222 222 208 199 206 212 211 215 217 216 215 210 208 202 201 204 205 188 157 182 184 201 193 197 212 214 230
239 135 183 186 211 205 227 59 167 163 311 341 325 308 253 181 215 219 215 213 213 208 207 211 207 208 211 218 213 211 204 202 201 194 196 198 215 218 214 213 199 193 200 211
185 170 169 207 207 198 215 62 67 99 114 246 175 260 278 222 241 225 220 218 214 208 209 204 210 210 210 210 209 205 199 198 196 193 199 201 218 223 198 193 183 201 199 205
170 159 193 202 190 197 148 92 75 82 357 240 82 281 273 253 320 234 216 212 214 209 204 210 213 212 215 207 202 201 189 194 192 193 196 206 211 209 195 200 197 203 206 205
196 214 193 184 146 146 182 173 199 204 213 268 61 231 263 288 319 285 276 203 203 204 200 202 204 203 206 201 200 199 189 186 189 197 200 206 209 213 208 204 211 191 210 218
197 205 188 171 204 177 196 214 206 222 206 223 135 238 278 339 317 306 229 194 192 198 205 204 206 202 201 202 199 196 190 193 191 196 206 206 207 213 220 217 223 221 223 228
171 234 174 212 154 181 149 199 185 118 66 242 169 264 265 198 260 29 210 192 188 199 212 205 202 204 204 201 198 198 191 194 195 195 194 207 209 215 219 219 221 232 235 230
179 203 169 133 134 64 217 139 170 165 186 238 204 273 263 285 226 332 323 287 262 226 207 212 199 205 203 206 199 195 181 166 128 149 232 229 218 214 222 219 222 225 229 224
162 255 143 181 206 167 152 175 72 108 331 259 259 256 226 241 226 286 22 357 345 252 222 204 202 203 201 200 180 160 151 142 158 194 191 217 231 222 216 222 226 223 222 218
182 164 229 187 76 340 184 174 189 220 193 263 290 255 112 192 239 244 320 355 16 310 224 197 186 188 187 186 157 158 156 157 173 230 213 211 222 215 219 228 225 222 220 213
172 207 199 166 135 70 222 170 185 154 138 191 233 243 140 189 215 206 289 355 55 70 103 151 158 164 175 169 154 158 168 168 199 219 195 216 219 218 218 226 228 226 222 216
162 161 217 197 139 125 180 182 190 214 203 182 230 259 222 192 186 165 202 31 45 96 117 118 152 157 187 115 141 156 179 189 204 220 215 219 221 222 223 231 237 236 228 224
185 208 181 224 288 191 254 191 182 208 215 203 234 223 285 180 170 159 145 140 96 91 115 128 129 128 123 118 136 156 172 189 207 233 240 256 245 234 224 231 229 229 232 230
195 173 165 137 156 181 202 176 197 207 223 252 219 256 153 148 130 152 150 141 114 100 98 112 117 112 108 109 114 130 151 178 191 209 228 243 247 243 229 236 240 238 233 231
175 152 170 189 172 268 235 200 202 204 211 238 220 254 160 164 155 156 151 154 126 117 127 129 121 120 117 114 115 104 107 135 166 182 205 228 242 246 241 235 240 242 241 239
161 141 80 127 155 217 64 325 253 226 225 214 268 205 195 159 134 144 171 148 131 131 145 135 137 124 115 115 113 110 97 93 104 110 116 158 220 251 267 259 253 254 251 248
197 139 110 164 200 332 198 193 161 210 176 191 223 157 164 136 120 128 182 163 141 149 146 156 141 123 126 137 139 132 134 139 128 102 67 344 326 324 321 297 278 267 256 252
104 92 157 158 175 204 199 143 196 206 134 189 182 169 158 161 162 170 176 168 153 160 162 163 150 138 142 146 147 147 142 135 125 123 103 72 297 301 309 308 302 288 257 259
128 70 156 150 161 237 223 148 143 198 109 158 192 173 169 171 51 125 166 172 175 164 175 177 166 159 164 159 164 170 160 162 154 137 42 350 348 326 313 309 307 299 298 294
152 142 138 131 147 213 158 143 226 25 104 151 160 172 156 141 135 131 160 165 171 181 180 194 186 179 177 171 178 173 183 166 154 151 141 342 328 326 318 307 300 295 298 297
165 191 170 214 129 30 299 19 8 226 192 134 143 162 179 135 136 106 148 168 175 182 181 194 208 171 152 184 177 188 163 146 156 147 131 305 307 302 302 294 292 287 275 277
170 166 137 161 143 133 133 140 155 137 113 135 116 146 166 158 166 138 130 165 171 172 173 175 177 151 151 199 149 80 123 121 166 281 323 320 305 313 303 290 278 276 272 282
143 166 137 109 122 117 83 93 118 121 117 101 90 103 121 148 184 160 146 146 153 140 148 173 173 164 145 141 121 118 181 191 270 322 316 308 303 302 301 292 286 274 261 266
185 153 182 169 151 108 120 110 122 102 87 85 94 81 64 108 118 111 76 50 72 95 107 98 99 115 113 101 117 145 200 324 332 312 315 320 309 308 308 308 302 240 246 227